User: anonymous   Login
Location: Unspecified
(0.0000°N, 0.0000°E)
Time: 15:40:32
(UTC+00:00)
Language:

DMSP B5D2-8 - Orbit

View from above orbital plane
View from above orbital plane
View from above satellite
View from above satellite

Ground track
Ground track

The orbit data is extracted from the following two-line orbital elements,

1 23533U 95015A   18315.70379321 0.00000030  00000-0  15268-4 0    08
2 23533  98.7996 314.6283 0006000 135.1756 224.8243 14.15857098    00
Epoch (UTC): 11 November 2018 16:53:27
Eccentricity: 0.0006000
inclination: 98.7996°
perigee height: 835 km
apogee height: 844 km
right ascension of ascending node: 314.6283°
argument of perigee: 135.1756°
revolutions per day: 14.15857098
mean anomaly at epoch: 224.8243°
orbit number at epoch: 0

The dashed part of the orbit path shows where the satellite is in the earth's shadow,  

DLR